Location: Austin
(30.3000°N, 97.7500°W)
Time: 16:06:43
(UTC-06:00)

CZ-2D R/B - Pass Details

Date: 01 August 2025
Orbit: 789 x 841 km, 98.9° (Epoch: 22 January)

Event Time Altitude Azimuth Distance (km) Brightness Sun altitude
Rises 03:07:02 0° 25° (NNE) 3,291 6.2 -37.2°
Reaches altitude 10° 03:09:35 10° 36° (NE) 2,363 5.3 -36.9°
Enters shadow 03:12:23 25° 62° (ENE) 1,545 3.9 -36.6°
